User: anonymous   Login
Location: Newark
(41.0400°S, 62.7845°W)
Time: 23:27:24
(UTC+00:00)
Language:

SR - Orbit

View from above orbital plane
View from above orbital plane
View from above satellite
View from above satellite

Ground track
Ground track

The orbit data is extracted from the following two-line orbital elements,

1 00046U 60007B   21331.49187500  .00000098  00000-0  42677-4 0  9994
2 00046  66.6918  59.5667 0202496  97.8328 264.5819 14.49474624215633
Epoch (UTC): 27 November 2021 11:48:18
Eccentricity: 0.0202496
inclination: 66.6918°
perigee height: 583 km
apogee height: 871 km
right ascension of ascending node: 59.5667°
argument of perigee: 97.8328°
revolutions per day: 14.49474624
mean anomaly at epoch: 264.5819°
orbit number at epoch: 21563

The dashed part of the orbit path shows where the satellite is in the earth's shadow,  

DLR